sat.trackr.live / text

‹ back to catalog

STARLINK-11184 [DTC]

NORAD 60071 · 2024-113N

PAYLOAD ACTIVE UNKNOWN

§ Identity

Operator
Country
US
Launch date
2024-06-19
Launch site
AFWTR
Launch vehicle
Mass (kg)
RCS (m²)

Purposes: comms

External: N2YO · Heavens-Above · Gunter

§ Orbital elements

Epoch: 2026-09-20T10:08:08.303712Z

Period
91.74 min
Inclination
53.1586°
Eccentricity
0.0000898
Mean motion
15.69699408 rev/d
Perigee alt
359.2 km
Apogee alt
360.4 km
Semi-major
6,737.9 km
B*
1.0507e-6
RAAN
311.4705°
Arg perigee
63.5720°
Mean anomaly
296.5390°
Rev number
13,014

§ Raw data

STARLINK-11184 [DTC]1 60071U 24113N   26263.42231833 -.00000461  00000+0  10507-5 0  99992 60071  53.1586 311.4705 0000898  63.5720 296.5390 15.69699408130143

JSON: /api/v1/satellites/60071 · /tle

For live sub-satellite position, see the globe view (requires WebGL).

§ Visibility from observer

Set your observer location to see the next 7 days of passes ≥ 10°. The values pass through the URL so the page stays shareable.

No JS? Fill the form by hand. The geolocation button needs JavaScript.